Regional Weather Roundup
Issued by NWS

Home | Current Version | Previous Version | Text Only | Print | Product List | Glossary On
Versions: 1 2 3 4 5 6 7 8 9 10 11 12 13 14 15 16 17 18 19 20 21 22 23 24 25 26 27 28 29 30 31 32 33 34 35 36 37 38 39 40 41 42 43 44 45 46 47 48 49 50
000
ASCA42 TJSJ 221711
RWRPR
PUERTO RICO/U.S. VIRGIN ISLANDS HOURLY WEATHER ROUNDUP
NATIONAL WEATHER SERVICE SAN JUAN PR
100 PM AST FRI AUG 22 2014

PRZ001-004-221800-
PUERTO RICO

CITY           SKY/WX    TMP DP  RH WIND       PRES   REMARKS
SAN JUAN LMM   LGT RAIN  77  75  94 SE5       29.86S FOG
PONCE          LGT RAIN  81  77  89 SE9       29.82S
MAYAGUEZ       PTSUNNY   84  75  74 E6        29.87S HX  92
AGUADILLA      MOSUNNY   82  77  83 NE9       29.85F HX  91
CEIBA          LGT RAIN  77  75  94 SE6       29.91R
$$

PRZ006-007-221800-
U.S. VIRGIN ISLANDS

CITY           SKY/WX    TMP DP  RH WIND       PRES   REMARKS
CHARLOTTE AMA  HVY RAIN  75  75 100 SE18G30   29.92  FOG
CHRISTIANSTED  CLOUDY    77  73  88 S10G20    29.90F
$$

HOURLY WEATHER ROUNDUP FOR THE NEWS MEDIA

CITY           SKY/WX    TMP DP  RH WIND       PRES   REMARKS
MIAMI          PTSUNNY   90  76  63 SE9       30.06F HX 101
ORLANDO        PTSUNNY   92  75  57 S6        30.06F HX 103
NEW YORK       PTSUNNY   77  62  59 E10       30.03F
NEWARK         CLOUDY    73  63  68 SE5       30.03F
CHICAGO        CLOUDY    80  73  79 W10       29.96S
HARTFORD       PTSUNNY   72  62  71 E9        30.06S
BOSTON         PTSUNNY   70  62  76 NE13      30.10S
DALLAS         MOSUNNY   91  68  46 SW12G18   30.05S HX  95
PHILADELPHIA   CLOUDY    76  67  73 E10       30.01F


USA.gov is the U.S. government's official web portal to all federal, state and local government web resources and services.